This is the latest recevied weather packets stored in our database for station/object N7CEE-2. If no packets are shown the sender has not sent any weather packets the latest 10 day(s).
| Time | Temp. | Humidity | Pressure | Rain* | Wind** | Luminosity | Snow |
|---|---|---|---|---|---|---|---|
| 1777600513 | 30° C | 17% | 1006.7 hPa | 0 mm | - | 11 W/m² | - |
| 1777600209 | 30° C | 17% | 1006.8 hPa | 0 mm | - | 16 W/m² | - |
| 1777599905 | 30° C | 17% | 1006.6 hPa | 0 mm | - | 20 W/m² | - |
| 1777599601 | 30° C | 16% | 1006.7 hPa | 0 mm | - | 24 W/m² | - |
| 1777599299 | 30° C | 16% | 1006.6 hPa | 0 mm | - | 28 W/m² | - |
| 1777598995 | 30° C | 16% | 1006.6 hPa | 0 mm | - | 34 W/m² | - |
| 1777598691 | 30° C | 16% | 1006.6 hPa | 0 mm | - | 39 W/m² | - |
| 1777598387 | 30° C | 16% | 1006.5 hPa | 0 mm | - | 45 W/m² | - |
| 1777598086 | 30° C | 16% | 1006.6 hPa | 0 mm | - | 51 W/m² | - |
| 1777597785 | 30.56° C | 16% | 1006.6 hPa | 0 mm | - | 56 W/m² | - |
| 1777597481 | 30° C | 16% | 1006.6 hPa | 0 mm | - | 62 W/m² | - |
| 1777597177 | 30.56° C | 16% | 1006.6 hPa | 0 mm | - | 71 W/m² | - |
| 1777596872 | 30.56° C | 16% | 1006.7 hPa | 0 mm | - | 83 W/m² | - |
| 1777596568 | 30.56° C | 16% | 1006.8 hPa | 0 mm | - | 94 W/m² | - |
| 1777596266 | 30.56° C | 16% | 1006.9 hPa | 0 mm | - | 105 W/m² | - |
| 1777595963 | 30.56° C | 16% | 1006.6 hPa | 0 mm | - | 116 W/m² | - |
| 1777595663 | 31.11° C | 16% | 1006.6 hPa | 0 mm | - | 132 W/m² | - |
| 1777595358 | 30.56° C | 16% | 1006.7 hPa | 0 mm | - | 146 W/m² | - |
| 1777595056 | 30.56° C | 16% | 1006.7 hPa | 0 mm | - | 151 W/m² | - |
| 1777594753 | 31.11° C | 16% | 1006.6 hPa | 0 mm | - | 152 W/m² | - |
| 1777594448 | 31.11° C | 16% | 1006.7 hPa | 0 mm | - | 207 W/m² | - |
| 1777594143 | 31.11° C | 16% | 1006.8 hPa | 0 mm | - | 297 W/m² | - |
| 1777593840 | 31.11° C | 16% | 1006.8 hPa | 0 mm | - | 257 W/m² | - |
| 1777593537 | 31.11° C | 15% | 1006.7 hPa | 0 mm | - | 168 W/m² | - |
| 1777593231 | 31.67° C | 15% | 1006.6 hPa | 0 mm | - | 421 W/m² | - |
* Rain latest hour (hover to see other rain measurements)
** Current wind speed in m/s (hover to see current wind gust speed)